Location: Newark
(48.6461°N, 4.3644°W)
Time: 09:39:03
(UTC+00:00)

STARLINK 1011 - Pass Details

Date: 11 December 2019
Orbit: 493 x 495 km, 53.0° (Epoch: 28 January)

Event Time Altitude Azimuth Distance (km) Brightness Sun altitude
Exits shadow 05:17:28 12° 166° (SSE) 1,478 6.0 -25.6°
Drops below altitude 10° 05:17:47 10° 164° (SSE) 1,585 6.2 -25.6°
Sets 05:20:08 0° 151° (SSE) 2,460 7.4 -25.2°
